| time (UTC) | temp F | wind direction | speed knots | gust knots | rain 1hr in | rain 24hr in | rain mn in | humidity % | barometer mb |
| 20260504214626 | 76 | 76 | 3.5 | 7.8 | 0.00 | 0.00 | 0.00 | 32 | 1002.8 |
| 20260504213136 | 75 | 13 | 1.7 | 6.1 | 0.00 | 0.00 | 0.00 | 35 | 1002.9 |
| 20260504211634 | 76 | 118 | 1.7 | 6.1 | 0.00 | 0.00 | 0.00 | 35 | 1003.0 |
| 20260504210124 | 76 | 58 | 3.5 | 7.0 | 0.00 | 0.00 | 0.00 | 34 | 1002.8 |
| 20260504204643 | 76 | 84 | 2.6 | 6.1 | 0.00 | 0.00 | 0.00 | 36 | 1003.1 |
| 20260504203152 | 75 | 46 | 4.3 | 7.8 | 0.00 | 0.00 | 0.00 | 36 | 1003.4 |
| 20260504201648 | 74 | 88 | 4.3 | 8.7 | 0.00 | 0.00 | 0.00 | 36 | 1003.6 |
| 20260504200139 | 74 | 60 | 3.5 | 9.6 | 0.00 | 0.00 | 0.00 | 37 | 1003.8 |
| 20260504194625 | 74 | 39 | 3.5 | 7.8 | 0.00 | 0.00 | 0.00 | 37 | 1003.9 |
| 20260504193146 | 73 | 4 | 3.5 | 9.6 | 0.00 | 0.00 | 0.00 | 39 | 1004.2 |
| 20260504191649 | 73 | 54 | 3.5 | 12.2 | 0.00 | 0.00 | 0.00 | 40 | 1004.3 |
| 20260504190151 | 73 | 104 | 1.7 | 10.4 | 0.00 | 0.00 | 0.00 | 42 | 1004.4 |
| 20260504184641 | 72 | 86 | 3.5 | 8.7 | 0.00 | 0.00 | 0.00 | 44 | 1004.6 |
| 20260504183131 | 71 | 51 | 5.2 | 14.8 | 0.00 | 0.00 | 0.00 | 43 | 1004.7 |
| 20260504181624 | 71 | 68 | 3.5 | 7.8 | 0.00 | 0.00 | 0.00 | 43 | 1004.8 |
| 20260504180125 | 71 | 73 | 3.5 | 5.2 | 0.00 | 0.00 | 0.00 | 44 | 1004.9 |
| 20260504174657 | 70 | 57 | 1.7 | 10.4 | 0.00 | 0.00 | 0.00 | 45 | 1005.0 |
| 20260504173131 | 70 | 29 | 3.5 | 13.9 | 0.00 | 0.00 | 0.00 | 45 | 1005.2 |
| 20260504171628 | 70 | 43 | 3.5 | 14.8 | 0.00 | 0.00 | 0.00 | 44 | 1005.0 |
| 20260504170200 | 69 | 134 | 3.5 | 8.7 | 0.00 | 0.00 | 0.00 | 45 | 1005.2 |
| 20260504160132 | 67 | 41 | 2.6 | 7.8 | 0.00 | 0.00 | 0.00 | 47 | 1006.1 |
| 20260504150133 | 64 | 48 | 4.3 | 7.0 | 0.00 | 0.00 | 0.00 | 47 | 1006.5 |
| 20260504140125 | 60 | 220 | 3.5 | 7.0 | 0.00 | 0.00 | 0.00 | 50 | 1006.7 |
| 20260504130135 | 57 | 75 | 3.5 | 6.1 | 0.00 | 0.00 | 0.00 | 51 | 1007.1 |
| 20260504120130 | 55 | 30 | 1.7 | 6.1 | 0.00 | 0.00 | 0.00 | 53 | 1007.3 |
| 20260504110207 | 54 | 359 | 1.7 | 7.0 | 0.00 | 0.00 | 0.00 | 52 | 1007.0 |
| 20260504100125 | 53 | 27 | 0.9 | 4.3 | 0.00 | 0.00 | 0.00 | 53 | 1007.2 |
| 20260504090138 | 53 | 61 | 1.7 | 6.1 | 0.00 | 0.00 | 0.00 | 54 | 1007.2 |
| 20260504081657 | 53 | 39 | 2.6 | 7.0 | 0.00 | 0.00 | 0.00 | 53 | 1007.5 |
| 20260504080128 | 53 | 31 | 2.6 | 6.1 | 0.00 | 0.00 | 0.00 | 53 | 1007.6 |
| 20260504070127 | 53 | 82 | 1.7 | 5.2 | 0.00 | 0.00 | 0.00 | 53 | 1007.7 |
| 20260504060147 | 54 | 98 | 1.7 | 7.0 | 0.00 | 0.00 | 0.00 | 52 | 1007.8 |
| 20260504050142 | 52 | 90 | 0.0 | 0.9 | 0.00 | 0.00 | 0.00 | 60 | 1008.0 |
| 20260504044638 | 51 | 96 | 0.0 | 0.9 | 0.00 | 0.00 | 0.00 | 65 | 1008.1 |
| 20260504043131 | 51 | 96 | 0.0 | 0.9 | 0.00 | 0.00 | 0.00 | 67 | 1008.1 |
| 20260504041626 | 51 | 96 | 0.0 | 0.0 | 0.00 | 0.00 | 0.00 | 67 | 1008.2 |
| 20260504040142 | 51 | 96 | 0.0 | 0.0 | 0.00 | 0.00 | 0.00 | 66 | 1008.3 |
| 20260504034639 | 51 | 96 | 0.0 | 0.9 | 0.00 | 0.00 | 0.00 | 68 | 1008.5 |
| 20260504033133 | 51 | 97 | 0.0 | 0.0 | 0.00 | 0.00 | 0.00 | 68 | 1008.6 |
| 20260504030135 | 51 | 97 | 0.0 | 0.0 | 0.00 | 0.00 | 0.00 | 68 | 1008.6 |
| 20260504024631 | 52 | 70 | 0.0 | 1.7 | 0.00 | 0.00 | 0.00 | 67 | 1008.8 |
| 20260504023128 | 52 | 91 | 0.0 | 2.6 | 0.00 | 0.00 | 0.00 | 68 | 1009.1 |
| 20260504021628 | 52 | 91 | 0.0 | 7.0 | 0.00 | 0.00 | 0.00 | 70 | 1009.4 |
| 20260504020128 | 52 | 94 | 3.5 | 8.7 | 0.00 | 0.00 | 0.00 | 68 | 1009.5 |
| 20260504014641 | 54 | 101 | 0.0 | 7.0 | 0.00 | 0.00 | 0.00 | 60 | 1009.7 |
| 20260504013132 | 55 | 107 | 1.7 | 10.4 | 0.00 | 0.00 | 0.00 | 54 | 1009.2 |
| 20260504011626 | 56 | 69 | 3.5 | 13.9 | 0.00 | 0.00 | 0.00 | 52 | 1009.0 |
| 20260504010150 | 56 | 76 | 4.3 | 13.9 | 0.00 | 0.00 | 0.00 | 49 | 1008.9 |
| 20260504004638 | 56 | 342 | 2.6 | 9.6 | 0.00 | 0.00 | 0.00 | 49 | 1008.6 |
| 20260504003137 | 54 | 83 | 1.7 | 4.3 | 0.00 | 0.00 | 0.00 | 51 | 1008.5 |
| 20260504001637 | 54 | 80 | 0.0 | 2.6 | 0.00 | 0.00 | 0.00 | 53 | 1008.3 |
| 20260504000130 | 55 | 77 | 0.0 | 0.9 | 0.00 | 0.00 | 0.00 | 51 | 1008.2 |
| 20260503234627 | 55 | 96 | 1.7 | 6.1 | 0.00 | 0.00 | 0.00 | 50 | 1008.7 |
| 20260503233124 | 55 | 51 | 1.7 | 7.0 | 0.00 | 0.00 | 0.00 | 48 | 1008.7 |
| 20260503231640 | 56 | 98 | 2.6 | 10.4 | 0.00 | 0.00 | 0.00 | 45 | 1008.6 |
| 20260503230138 | 56 | 115 | 0.0 | 4.3 | 0.00 | 0.00 | 0.00 | 46 | 1008.6 |
| 20260503224634 | 56 | 128 | 1.7 | 7.0 | 0.00 | 0.00 | 0.00 | 45 | 1008.5 |
| 20260503223148 | 57 | 110 | 0.9 | 5.2 | 0.00 | 0.00 | 0.00 | 45 | 1008.4 |
| 20260503221639 | 57 | 326 | 1.7 | 6.1 | 0.00 | 0.00 | 0.00 | 44 | 1008.4 |
| 20260503220135 | 56 | 82 | 2.6 | 7.8 | 0.00 | 0.00 | 0.00 | 44 | 1008.6 |